星链-32736 (STARLINK-32736)

导读

STARLINK-32736是美国SpaceX公司星链(Starlink)星座中的一颗低轨互联网卫星,于2024年12月29日发射入轨。星链项目旨在为全球提供高速低延迟宽带互联网服务,可覆盖偏远地区,支持流媒体、视频会议等应用。STARLINK-32736采用紧凑型平板设计,依托SpaceX可重复使用火箭实现低成本批量部署,是星链扩展全球网络覆盖的重要组成部分,推动全球卫星互联网建设不断完善。

Basic Information
目录编号:
62443
目录名称:
STARLINK-32736
国际标识:
2024-251M
轨道中心:
EARTH
卫星名称:
星链-32736
卫星全名:
星链-32736 (STARLINK-32736)
卫星状态:
在轨 (已飞行615 天)
发射日期:
2024-12-29 UTC
国别 :
美国 (US)
星等 :
--
Orbit Information
数据来源 国际轨道数据 AOE轨道数据
星历时间 2026-09-04T23:35:40+0800
16小时前
查看轨道信息
2026-09-01T10:00:00+0800
4天前
查看轨道信息
半长轴 6840.849km 6840.877km
偏心率 0.0001361 0.0001202
轨道倾角 53.160° 53.159°
近地点辐角 85.259° 58.008°
升交点赤经 223.656° 240.331°
平近点角 274.857° 30.789°
近地点 461.78km 461.917km
远地点 463.644km 463.563km
周期 93.848分钟 93.849分钟
每日圈数 15.343973 15.343877
Detailed Information
固有亮度:
5
最大亮度:
2.5
卫星平台:
Starlink V1.0
覆盖范围:
全球
运营商:
太空探索技术公司
运营商所在国:
美国
制造商(研发单位):
太空探索技术公司
制造商所在国:
美国
使用方式:
暂无
Satellite Introduction
Starlink 计划是 SpaceX 推出的全球卫星互联网项目,通过发射低轨道卫星,为全球尤其是偏远地区提供高速、低延迟的互联网服务。自 2019 年起,Starlink 已部署数千颗卫星,旨在缩小全球数字鸿沟,推动互联网普及。该项目还为军事、航空等行业提供通信支持,带来广泛经济效益。
2D Orbit Map
3D Orbit Map
Orbit Altitude Analysis Chart
Orbit Inclination Analysis Chart
Orbit Comprehensive Analysis Chart
View Comprehensive Chart
Conjunction Data List
Event ID Objects TCA Miss Dist (km) Collision Risk Probability Collision Risk Index (CRI) Action
CDM_260905-022705-693406-244321
2026-09-05T
02:27:12+0000
2.077 km
极远距离
2.593167E-6 低风险 0.43
CDM_260907-085003-132706-244321
2026-09-07T
08:50:27+0000
2.001 km
极远距离
2.461322E-6 低风险 0.43
CDM_260906-133804-298806-244321
2026-09-06T
13:38:41+0000
2.574 km
极远距离
1.665657E-6 低风险 0.39
CDM_260906-125104-298806-244321
2026-09-06T
12:51:46+0000
2.908 km
极远距离
1.388954E-6 低风险 0.38
CDM_260903-174204-977106-244321
2026-09-03T
17:42:27+0000
2.945 km
极远距离
1.228007E-6 低风险 0.37